TITAN 3C TRANSTAGE R/B, 3292

Orbit data source: Space-Track

TITAN 3C TRANSTAGE R/B, 3292 is space debris in GEO originally from a launch on Thu, 13 Jun 1968 UTC launched from the Air Force Eastern Test Range (AFETR). Debris objects in space refer to the collection of defunct objects orbiting the Earth. Examples of debris include non-operational satellites, rocket bodies, and fragments generated from explosions, collisions, or faulty payload assembly.

Loading next visibility...
TITAN 3C TRANSTAGE R/B details
Identifier
3292, 1968-050J
Orbit
GEO
Last TLE update21 hours ago
Origin
Flag of USSAMSO (US)
ManufacturerMartin Marietta
MissionSpacecraft
Bus & MotorTRANSTAGE, Unknown motor
Mass~1,950 kg wet, ~1,950 kg dry
Launch date (UTC)
1968-06-13 (57 years ago)
Launch vehicleUnknown
Launch site
Air Force Eastern Test Range (AFETR)
Object type
Payload
Rocket body
Debris
Shape & HBRCyl + 2 Nozzle, 4.6 m
Radar Cross Section14.974 m², Large (>1 m²)

Expand to show TLE details & history

TLE from 21 hours ago
0 TITAN 3C TRANSTAGE R/B
1 03292U 68050J   24355.65775310 -.00000069  00000-0  00000-0 0  9994
2 03292   6.4766  57.6141 0172237 352.9430  91.2966  1.05593350 40760
Epoch: 2024-12-20T15:47Z
Definitive object data (Epoch: 2024-12-20T15:47:09.867Z)
Latitude6.48299°
Longitude177.29911°
Altitude34,382.008 km
Speed3.126 km/s
True Right ascension09h 35m 14s
True Declination6° 28' 35"
Sunlit
Object was in daylight at TLE epoch
Visualization TLE readout
Latitude5.34737°
Longitude146.27503°
Altitude34,019.555 km
Speed3.154 km/s
Apparent Right ascension07h 05m 14s
Apparent Declination0° 27' 57"
Sunlit
Object is in daylight
Visualization observer readout
Local Sidereal Time11:36:37
Azimuth254.999° W
Elevation16.498°
Doppler factor1
Orbital elements
Apogee altitude35,060.505 km
Perigee altitude33,657.221 km
Semi-major axis40,737 km
Eccentricity0.0172237
Inclination6.4766°
RAAN57.6141°
Arg. of periapsis352.943°
True anomaly93.26844°
Mean anomaly91.2966°
Eccentric anomaly92.28266°
Mean motion0.26397 °/min
BSTARUnknown
Orbital period1363.78 mins
Loading historical data...
3292 neighbors
Authenticating...
Loading maneuver chart data...
Loading historical data...
Loading historical data...
Loading historical data...
Loading historical data...
Loading historical data...
Loading historical data...
Loading historical data...

TITAN 3C TRANSTAGE R/B Visibility forecast

Observer location: undefined°, undefined

Span
Click to sort rows by Start time (UTC) header in descending order
Start Az.
Max El. time (UTC)
Max El. Az.
Max El.
End time (UTC)
End Az.
1440 mins2024-12-21 12:34:48.319Z254.983° W2024-12-22 12:34:48.319Z239.547° WSW27.906°2024-12-22 12:34:48.319Z239.547° WSW
|